Location: Assche-ter-Heiden
(50.9174°N, 4.1574°E)
Time: 21:16:17
(UTC+00:00)

SJ-7 - Pass Details

Date: 20 January 2020
Orbit: 557 x 602 km, 97.7° (Epoch: 16 February)

Event Time Altitude Azimuth Distance (km) Brightness Sun altitude
Rises 05:53:24 0° 12° (NNE) 2,800 7.9 -15.7°
Reaches altitude 10° 05:55:33 10° 11° (N) 1,904 7.0 -15.4°
Maximum altitude 05:59:41 78° 286° (WNW) 605 4.3 -14.7°
Drops below altitude 10° 06:03:50 10° 200° (SSW) 1,915 7.0 -14.1°
Sets 06:06:00 0° 199° (SSW) 2,818 7.9 -13.8°
